When you browse on this site, cookies collect data to enhance your experience and personalize the content and advertising you see.
Visit our Privacy Policy to learn more. By continuing to use the site, you agree to this use of cookies and data.
  • Em Portugal
  • Lista de países
  • Para 7 dias
  • Temperatura da água
  • Mapas de satélite
  • Mapa do tempo
  • Widgets de tempo
  • user-avatar
    Iniciar Sessão

    Previsão horária em Selyanka

    Hoje, 20 Fevereiro, Quarta-feira

    Tempo Temperatura Precipitação Vento Pressão Humidade
    00:00 -18°C° 0 mm 0 m/s 732 mmHg 96%
    01:00 -19°C° 0 mm 0 m/s 733 mmHg 96%
    02:00 -19°C° 0 mm 0 m/s 733 mmHg 97%
    03:00 -20°C° 0 mm 0 m/s 733 mmHg 98%
    04:00 -20°C° 0 mm 0 m/s 733 mmHg 98%
    05:00 -20°C° 0 mm 0 m/s 733 mmHg 98%
    06:00 -21°C° 0 mm 1 m/s 733 mmHg 98%
    07:00 -21°C° 0 mm 1 m/s 734 mmHg 98%
    08:00 -20°C° 0 mm 1 m/s 734 mmHg 96%
    09:00 -18°C° 0 mm 1 m/s 734 mmHg 94%
    10:00 -17°C° 0 mm 1 m/s 734 mmHg 92%
    11:00 -17°C° 0 mm 2 m/s 734 mmHg 89%
    12:00 -16°C° 0 mm 2 m/s 734 mmHg 87%
    13:00 -15°C° 0 mm 2 m/s 734 mmHg 84%
    14:00 -15°C° 0 mm 2 m/s 734 mmHg 86%
    15:00 -15°C° 0 mm 3 m/s 733 mmHg 87%
    16:00 -15°C° 0 mm 3 m/s 733 mmHg 88%
    17:00 -16°C° 0 mm 3 m/s 733 mmHg 89%
    18:00 -16°C° 0 mm 3 m/s 733 mmHg 91%
    19:00 -17°C° 0 mm 4 m/s 732 mmHg 92%
    20:00 -17°C° 0.1 mm 4 m/s 732 mmHg 92%
    21:00 -17°C° 0.1 mm 4 m/s 732 mmHg 92%
    22:00 -17°C° 0.1 mm 4 m/s 731 mmHg 91%
    23:00 -16°C° 0.1 mm 4 m/s 731 mmHg 91%

    Amanhã, 21 Fevereiro, Quinta-feira

    Tempo Temperatura Precipitação Vento Pressão Humidade
    00:00 -15°C° 0.1 mm 4 m/s 730 mmHg 91%
    01:00 -15°C° 0.1 mm 4 m/s 730 mmHg 91%
    02:00 -14°C° 0.1 mm 4 m/s 729 mmHg 90%
    03:00 -13°C° 0.1 mm 5 m/s 729 mmHg 90%
    04:00 -13°C° 0.1 mm 5 m/s 729 mmHg 90%
    05:00 -12°C° 0.2 mm 5 m/s 728 mmHg 90%
    06:00 -12°C° 0.2 mm 5 m/s 728 mmHg 91%
    07:00 -12°C° 0.2 mm 5 m/s 728 mmHg 91%
    08:00 -11°C° 0.2 mm 5 m/s 728 mmHg 91%
    09:00 -10°C° 0.2 mm 5 m/s 728 mmHg 90%
    10:00 -8°C° 0.2 mm 5 m/s 728 mmHg 90%
    11:00 -8°C° 0.1 mm 5 m/s 729 mmHg 90%
    12:00 -7°C° 0.1 mm 5 m/s 729 mmHg 89%
    13:00 -6°C° 0.1 mm 5 m/s 729 mmHg 89%
    14:00 -6°C° 0.1 mm 5 m/s 729 mmHg 89%
    15:00 -6°C° 0.1 mm 5 m/s 729 mmHg 89%
    16:00 -4°C° 0.1 mm 4 m/s 730 mmHg 89%
    17:00 -5°C° 0.1 mm 4 m/s 730 mmHg 89%
    18:00 -5°C° 0.1 mm 4 m/s 730 mmHg 90%
    19:00 -7°C° 0.1 mm 4 m/s 731 mmHg 91%
    20:00 -7°C° 0.1 mm 4 m/s 731 mmHg 91%
    21:00 -7°C° 0.1 mm 4 m/s 731 mmHg 91%
    22:00 -6°C° 0.1 mm 3 m/s 731 mmHg 92%
    23:00 -6°C° 0.1 mm 3 m/s 732 mmHg 92%

    Depois de amanhã, 22 Fevereiro, Sexta-feira

    Tempo Temperatura Precipitação Vento Pressão Humidade
    00:00 -6°C° 0.1 mm 3 m/s 732 mmHg 92%
    01:00 -6°C° 0.1 mm 3 m/s 732 mmHg 92%
    02:00 -6°C° 0.1 mm 3 m/s 732 mmHg 92%
    03:00 -6°C° 0.1 mm 3 m/s 732 mmHg 92%
    04:00 -6°C° 0.1 mm 3 m/s 733 mmHg 92%
    05:00 -6°C° 0.1 mm 3 m/s 733 mmHg 92%
    06:00 -6°C° 0.1 mm 3 m/s 733 mmHg 92%
    07:00 -5°C° 0.1 mm 3 m/s 733 mmHg 92%
    08:00 -5°C° 0 mm 3 m/s 733 mmHg 91%
    09:00 -4°C° 0 mm 3 m/s 733 mmHg 90%
    10:00 -4°C° 0 mm 4 m/s 734 mmHg 90%
    11:00 -4°C° 0 mm 3 m/s 734 mmHg 89%
    12:00 -2°C° 0 mm 3 m/s 734 mmHg 89%
    13:00 -2°C° 0 mm 3 m/s 734 mmHg 89%
    14:00 -2°C° 0.1 mm 3 m/s 734 mmHg 89%
    15:00 -2°C° 0.1 mm 3 m/s 734 mmHg 90%
    16:00 -2°C° 0.1 mm 3 m/s 734 mmHg 91%
    17:00 -2°C° 0.2 mm 2 m/s 734 mmHg 92%
    18:00 -2°C° 0.2 mm 2 m/s 734 mmHg 93%
    19:00 -3°C° 0.2 mm 2 m/s 734 mmHg 94%
    20:00 -3°C° 0 mm 2 m/s 735 mmHg 94%
    21:00 -4°C° 0 mm 2 m/s 735 mmHg 94%
    22:00 -4°C° 0 mm 2 m/s 735 mmHg 94%
    23:00 -5°C° 0.4 mm 2 m/s 735 mmHg 94%

    23 Fevereiro, Sábado

    Tempo Temperatura Precipitação Vento Pressão Humidade
    00:00 -5°C° 0.4 mm 2 m/s 735 mmHg 95%
    01:00 -7°C° 0.4 mm 3 m/s 735 mmHg 95%
    02:00 -6°C° 0.7 mm 2 m/s 735 mmHg 95%
    03:00 -6°C° 0.7 mm 2 m/s 736 mmHg 96%
    04:00 -6°C° 0.7 mm 2 m/s 736 mmHg 96%
    05:00 -8°C° 0.3 mm 3 m/s 737 mmHg 93%
    06:00 -8°C° 0.3 mm 3 m/s 737 mmHg 91%
    07:00 -9°C° 0.3 mm 3 m/s 738 mmHg 89%
    08:00 -9°C° 0 mm 3 m/s 738 mmHg 90%
    09:00 -10°C° 0 mm 3 m/s 739 mmHg 92%
    10:00 -12°C° 0 mm 3 m/s 739 mmHg 93%
    11:00 -10°C° 0 mm 3 m/s 739 mmHg 92%
    12:00 -8°C° 0 mm 2 m/s 740 mmHg 91%
    13:00 -7°C° 0 mm 2 m/s 740 mmHg 90%
    14:00 -7°C° 0.1 mm 2 m/s 740 mmHg 89%
    15:00 -7°C° 0.1 mm 2 m/s 740 mmHg 87%
    16:00 -6°C° 0.1 mm 2 m/s 740 mmHg 86%
    17:00 -7°C° 0 mm 2 m/s 741 mmHg 88%
    18:00 -8°C° 0 mm 2 m/s 741 mmHg 91%
    19:00 -9°C° 0 mm 2 m/s 741 mmHg 93%
    20:00 -10°C° 0 mm 2 m/s 741 mmHg 94%
    21:00 -12°C° 0 mm 2 m/s 741 mmHg 95%
    22:00 -13°C° 0 mm 2 m/s 741 mmHg 95%
    23:00 -13°C° 0 mm 2 m/s 741 mmHg 96%

    24 Fevereiro, Domingo

    Tempo Temperatura Precipitação Vento Pressão Humidade
    00:00 -13°C° 0 mm 2 m/s 741 mmHg 96%
    01:00 -11°C° 0 mm 1 m/s 741 mmHg 97%
    02:00 -13°C° 0 mm 2 m/s 741 mmHg 97%
    03:00 -13°C° 0 mm 2 m/s 741 mmHg 97%
    04:00 -13°C° 0 mm 2 m/s 741 mmHg 97%
    05:00 -11°C° 0 mm 1 m/s 741 mmHg 97%
    06:00 -11°C° 0 mm 1 m/s 741 mmHg 97%
    07:00 -11°C° 0 mm 1 m/s 741 mmHg 97%
    08:00 -13°C° 0 mm 2 m/s 741 mmHg 96%
    09:00 -12°C° 0 mm 2 m/s 741 mmHg 95%
    10:00 -10°C° 0 mm 2 m/s 741 mmHg 94%
    11:00 -10°C° 0.1 mm 3 m/s 741 mmHg 93%
    12:00 -9°C° 0.1 mm 3 m/s 741 mmHg 91%
    13:00 -9°C° 0.1 mm 3 m/s 741 mmHg 90%
    14:00 -9°C° 0.1 mm 3 m/s 741 mmHg 89%
    15:00 -10°C° 0.1 mm 4 m/s 741 mmHg 89%
    16:00 -10°C° 0.1 mm 4 m/s 741 mmHg 88%
    17:00 -10°C° 0.1 mm 4 m/s 741 mmHg 88%
    18:00 -11°C° 0.1 mm 4 m/s 741 mmHg 88%
    19:00 -12°C° 0.1 mm 4 m/s 741 mmHg 88%
    20:00 -12°C° 0 mm 4 m/s 741 mmHg 89%
    21:00 -14°C° 0 mm 4 m/s 740 mmHg 90%
    22:00 -14°C° 0 mm 3 m/s 740 mmHg 92%
    23:00 -14°C° 0.1 mm 3 m/s 740 mmHg 91%

    25 Fevereiro, Segunda-feira

    Tempo Temperatura Precipitação Vento Pressão Humidade
    00:00 -14°C° 0.1 mm 4 m/s 740 mmHg 91%
    01:00 -14°C° 0.1 mm 4 m/s 740 mmHg 91%
    02:00 -13°C° 0.1 mm 3 m/s 739 mmHg 92%
    03:00 -13°C° 0.1 mm 3 m/s 739 mmHg 92%
    04:00 -13°C° 0.1 mm 3 m/s 739 mmHg 92%
    05:00 -13°C° 0.1 mm 3 m/s 739 mmHg 93%
    06:00 -13°C° 0.1 mm 3 m/s 738 mmHg 93%
    07:00 -13°C° 0.1 mm 3 m/s 738 mmHg 93%
    08:00 -13°C° 0.1 mm 3 m/s 738 mmHg 93%
    09:00 -12°C° 0.1 mm 3 m/s 738 mmHg 92%
    10:00 -12°C° 0.1 mm 3 m/s 738 mmHg 92%
    11:00 -10°C° 0.1 mm 3 m/s 737 mmHg 92%
    12:00 -10°C° 0.1 mm 3 m/s 737 mmHg 91%
    13:00 -10°C° 0.1 mm 4 m/s 737 mmHg 91%
    14:00 -10°C° 0.1 mm 4 m/s 736 mmHg 91%
    15:00 -9°C° 0.1 mm 3 m/s 736 mmHg 91%
    16:00 -8°C° 0.1 mm 3 m/s 736 mmHg 90%
    17:00 -9°C° 0 mm 3 m/s 736 mmHg 91%
    18:00 -9°C° 0 mm 3 m/s 735 mmHg 92%
    19:00 -9°C° 0 mm 3 m/s 735 mmHg 92%
    20:00 -9°C° 0.1 mm 3 m/s 735 mmHg 92%
    21:00 -9°C° 0.1 mm 3 m/s 735 mmHg 92%
    22:00 -9°C° 0.1 mm 3 m/s 735 mmHg 92%
    23:00 -9°C° 0 mm 3 m/s 734 mmHg 92%
    Mostrar mais